RH
22 18 15 12 10 10 10 9 12 13 13 10 13 14 9 10 13 16 11 12 10 11 12 12 17 18 20 22 26 25 33 25 19 30 21 19 18 14 14 13 12 17 15 16 21
28 26 20 12 10 9 10 11 10 10 9 9 12 14 9 8 10 16 17 11 10 11 14 12 16 18 18 21 23 22 26 16 23 23 22 21 20 18 15 14 12 13 14 16 22
26 26 26 19 11 12 15 14 14 13 10 10 13 15 15 15 15 17 18 11 13 11 13 15 14 16 18 19 21 30 23 29 25 26 22 19 18 18 15 15 14 13 13 16 22
22 19 20 25 24 13 14 15 15 14 13 12 12 16 16 19 17 17 18 12 13 11 12 12 15 18 22 20 17 17 23 21 22 19 15 17 16 16 18 16 16 17 16 15 19
14 14 14 16 20 25 21 17 16 16 16 12 11 14 18 21 17 17 18 12 13 12 12 14 15 17 19 16 20 17 22 18 18 17 19 20 21 20 24 24 23 21 18 16 18
10 10 10 13 13 16 23 24 21 18 17 15 14 14 17 23 16 16 18 13 12 13 12 13 13 15 15 18 20 20 19 20 22 26 25 28 30 29 25 30 31 30 18 18 20
9 9 10 11 12 14 16 25 22 19 16 16 15 15 17 18 17 16 18 14 13 14 15 14 15 17 18 19 20 24 29 31 33 35 29 35 31 32 27 33 23 34 24 19 20
10 9 9 10 13 16 16 19 24 18 16 17 17 16 18 18 17 18 17 18 15 14 16 18 20 19 20 24 28 30 28 23 34 43 33 32 26 31 33 27 24 30 34 22 20
8 9 9 10 15 17 16 16 17 18 16 17 17 20 20 20 20 19 18 19 15 15 18 22 23 24 29 34 31 28 19 26 28 48 46 36 29 32 35 23 27 30 34 27 22
7 8 9 9 14 16 16 17 18 18 18 17 18 21 22 21 20 20 20 20 18 20 26 28 27 34 35 31 31 18 24 30 32 41 50 45 44 40 40 24 28 31 35 34 21
6 6 8 9 11 16 17 19 19 20 20 19 21 21 23 21 20 23 20 23 25 26 30 36 34 35 26 29 30 32 33 34 37 52 51 46 59 48 44 25 29 30 37 36 24
6 6 7 8 11 15 17 21 24 25 27 23 22 22 21 21 23 22 20 25 29 32 34 30 29 30 33 34 35 36 38 38 40 50 51 58 55 54 42 25 29 31 29 36 32
6 6 6 8 16 15 17 20 22 24 28 31 26 24 23 22 24 23 23 26 30 31 31 24 25 28 31 35 35 39 39 41 47 55 59 64 39 41 29 24 27 28 29 31 28
6 6 6 8 15 14 15 19 24 25 35 23 27 27 26 25 30 28 29 28 35 31 33 31 31 31 35 35 39 31 48 51 57 57 45 60 50 41 42 27 27 28 28 28 30
6 6 7 8 11 15 15 23 30 36 34 23 30 26 29 26 28 31 32 32 33 42 33 26 38 38 38 37 42 42 55 60 66 85 85 63 73 44 50 40 30 29 26 30 27
7 7 8 11 12 15 19 25 36 31 28 27 29 28 23 31 32 33 35 32 37 42 43 40 42 44 44 51 50 62 61 65 77 82 72 71 70 49 54 43 32 30 28 29 28
8 8 11 12 13 14 22 29 28 38 20 22 27 29 28 26 29 30 32 40 46 29 29 54 48 47 48 57 59 58 56 62 57 74 60 78 76 60 47 31 31 34 34 33 30
9 10 14 15 15 17 30 24 12 13 26 34 33 28 24 34 30 33 33 34 59 38 65 37 34 56 51 65 66 64 62 66 36 42 34 77 85 62 48 45 41 40 47 41 34
10 15 18 17 15 23 28 38 16 16 34 28 24 23 22 37 33 30 31 55 43 49 41 47 31 53 54 65 67 65 75 55 82 87 94 59 56 54 51 62 71 71 64 55 45
12 18 24 22 17 24 31 33 25 38 34 35 20 22 18 23 30 28 25 45 59 68 66 48 48 60 58 60 70 71 70 71 85 55 73 62 78 51 51 60 77 84 81 74 58
16 21 31 24 23 21 35 27 45 34 35 33 26 29 31 31 36 30 24 41 53 67 67 79 63 57 59 72 76 88 85 89 79 76 70 73 66 77 78 60 79 83 80 78 71
17 19 34 25 27 58 46 45 33 36 34 36 35 37 39 42 41 39 36 55 57 61 72 80 79 73 53 92 85 91 81 83 74 65 96 88 85 87 97 90 77 85 80 74 70
22 31 33 30 28 49 51 46 43 44 47 43 45 45 46 47 48 41 47 56 50 52 71 72 78 75 54 69 83 98 93 90 91 91 94 88 73 83 87 98 90 82 84 84 76
25 32 33 42 63 58 54 73 55 51 51 44 45 43 42 45 47 51 47 52 54 51 65 70 88 62 56 52 78 90 97 97 85 98 79 76 62 92 95 94 98 90 85 81 80
37 92 81 92 88 83 77 77 68 84 74 57 63 62 63 68 72 58 63 75 62 54 73 74 85 78 75 71 77 75 75 94 97 80 84 70 77 75 78 91 90 87 94 97 100
52 70 78 92 83 74 87 92 74 70 86 80 76 74 73 87 71 84 90 82 82 68 71 80 89 95 99 77 83 86 84 86 81 80 82 78 82 84 98 88 96 98 98 98 98
22 54 60 91 88 87 85 89 63 61 76 74 70 66 71 84 75 60 63 65 77 92 90 85 92 94 87 80 74 74 77 81 88 91 86 94 87 98 97 99 100 100 99 98 98
Wind_Speed
4 4 4 3 4 4 5 5 5 6 6 7 7 5 4 2 2 7 5 7 6 3 1 2 4 5 5 3 3 3 4 1 2 4 1 1 1 0 1 1 2 3 3 2 12
5 5 4 4 4 2 3 4 5 6 6 5 5 4 3 1 3 4 8 5 5 2 2 3 5 6 3 3 2 4 3 5 1 1 1 2 1 2 1 2 2 5 6 5 15
5 5 5 4 3 2 4 5 5 4 4 4 3 3 3 2 1 2 7 4 4 1 2 3 5 3 3 2 2 3 3 3 1 1 1 1 1 2 1 1 2 3 5 10 19
5 6 6 5 4 4 4 4 3 3 3 3 2 2 1 1 1 4 5 4 2 1 3 4 3 2 3 3 2 3 2 2 3 1 0 0 3 3 2 1 7 10 9 11 20
6 7 7 7 5 5 5 5 4 4 3 2 2 2 3 2 1 6 3 2 1 1 2 3 3 3 4 4 3 2 3 3 2 2 1 2 2 2 2 5 7 7 8 13 18
7 8 8 7 7 7 7 6 5 5 5 3 3 3 3 2 2 5 2 1 1 2 2 3 2 4 6 2 2 3 4 4 2 3 2 3 2 1 3 6 15 9 5 11 17
8 8 9 9 8 7 7 7 6 5 4 3 2 3 4 4 3 2 2 2 1 2 4 4 5 3 5 3 4 4 3 2 6 7 1 4 1 3 2 15 10 5 5 9 14
9 9 10 10 10 7 7 7 6 4 2 3 3 2 2 4 4 2 3 2 1 2 4 5 6 6 3 7 4 3 4 1 1 8 4 4 5 2 9 12 10 7 6 8 12
10 10 10 10 9 7 7 6 6 6 3 4 5 4 2 3 3 2 2 2 3 4 4 4 2 3 4 5 4 5 2 1 3 3 3 4 5 3 12 7 9 9 3 10 11
11 10 9 9 8 7 6 4 3 6 6 4 4 2 4 3 3 2 0 2 3 5 4 1 2 3 3 3 4 4 2 2 4 2 3 2 8 6 8 4 6 9 4 10 11
12 10 10 9 8 6 5 2 1 3 6 3 3 2 2 2 2 1 1 3 4 3 1 3 3 4 3 1 2 4 3 2 3 1 3 2 5 11 5 1 7 10 7 7 10
12 11 10 9 7 5 4 2 4 2 2 5 5 3 3 1 1 1 1 3 3 3 2 4 3 2 6 3 3 2 2 4 3 1 0 4 9 4 2 1 3 6 5 6 10
13 11 10 8 5 4 3 2 2 2 0 1 2 2 1 1 2 1 1 4 3 4 2 5 1 3 2 2 3 2 3 2 3 5 2 6 5 2 3 3 2 5 5 5 9
12 11 10 8 4 4 2 2 2 1 4 2 0 0 1 1 1 2 2 2 3 5 4 1 1 3 1 2 4 2 1 3 2 4 3 3 4 4 4 4 2 3 5 5 9
12 10 9 6 5 4 2 1 0 1 4 1 0 1 0 1 2 1 4 2 4 5 4 3 5 3 2 1 2 2 2 3 3 4 3 1 3 6 1 5 5 2 3 4 7
11 10 8 6 5 3 2 1 1 6 5 0 0 1 1 2 1 1 2 3 5 4 4 2 1 1 2 3 3 6 4 4 3 2 1 3 3 5 5 5 5 3 3 3 5
11 9 7 6 4 3 1 2 5 4 1 1 1 3 2 2 1 2 1 2 4 3 3 2 1 1 1 4 2 3 4 3 4 3 5 3 1 9 2 1 4 7 5 4 5
11 7 5 5 3 1 3 4 2 2 2 1 1 1 1 2 0 2 1 2 1 4 3 4 5 4 2 2 6 4 5 5 6 3 3 1 6 5 1 3 8 9 8 7 6
10 5 3 5 2 2 2 4 6 4 1 2 2 0 1 1 1 2 3 3 3 4 7 4 4 1 3 1 2 3 3 2 7 1 2 4 6 4 3 3 5 8 8 8 7
8 4 1 4 1 2 4 5 1 1 1 1 2 0 2 2 1 1 1 3 1 0 2 2 2 1 2 2 4 2 1 3 3 2 5 4 5 5 5 7 5 5 7 7 8
6 2 1 4 1 2 3 3 1 2 3 3 2 2 2 3 1 2 3 2 5 2 3 3 3 1 1 5 6 1 2 3 2 3 4 2 5 3 3 8 9 8 8 6 7
3 1 2 3 2 2 2 1 2 3 4 3 3 3 3 4 2 1 3 3 5 1 1 3 4 3 4 1 3 2 4 4 4 5 3 1 8 3 3 4 14 12 10 8 8
4 1 3 2 2 1 1 2 3 4 4 5 4 4 2 2 3 2 3 2 1 2 3 3 1 4 7 3 2 2 2 2 3 2 6 3 6 1 2 2 11 16 13 10 12
2 2 5 8 6 4 3 3 3 6 3 3 2 2 2 3 1 3 3 1 2 1 3 5 2 7 9 6 4 3 4 4 3 3 5 12 19 3 8 11 12 16 17 16 16
4 2 2 2 6 5 3 2 2 4 6 8 4 5 3 1 5 2 2 5 2 2 2 2 4 4 6 6 3 6 7 7 9 12 12 19 15 5 6 11 20 20 18 16 14
4 3 5 4 3 3 5 3 1 2 3 3 4 3 2 2 3 3 4 3 5 4 1 3 3 2 3 8 9 12 6 10 16 15 14 18 21 3 7 8 16 24 25 20 20
9 8 3 7 3 3 1 0 1 2 3 6 1 2 3 1 7 16 17 14 10 2 4 1 1 4 6 2 11 10 7 6 2 3 4 7 5 4 4 2 5 13 19 19 20
Wind_Direction
6 6 352 325 299 303 300 285 285 300 320 337 348 351 349 203 224 5 10 5 2 14 41 133 134 128 129 119 109 121 69 199 215 167 211 108 195 98 282 246 208 207 188 176 175
22 15 4 346 322 319 323 312 297 291 294 310 326 353 28 98 251 325 357 356 12 30 115 141 137 133 104 98 72 87 113 211 137 137 192 325 2 327 335 341 258 246 244 214 181
21 15 4 356 348 340 340 332 321 292 286 294 295 348 20 335 260 306 338 345 8 51 140 143 143 132 96 98 46 117 153 168 158 167 258 251 277 331 64 331 254 277 267 211 189
7 6 357 351 332 324 315 327 348 10 299 294 250 348 320 307 206 315 329 355 17 94 138 134 154 122 90 120 106 106 110 132 159 144 355 358 320 332 207 299 300 284 275 226 203
356 354 352 344 331 303 292 291 308 313 322 299 278 278 292 270 249 340 336 4 79 111 149 151 161 142 144 135 119 101 157 115 113 76 13 309 307 268 285 342 348 324 249 236 217
344 345 342 331 326 305 288 282 298 298 303 295 283 270 257 253 249 360 349 24 125 128 109 161 144 142 116 92 112 123 119 116 69 35 72 354 298 286 178 345 326 309 272 224 218
340 335 335 331 324 311 299 276 295 303 298 262 252 247 250 266 230 329 344 213 91 122 106 120 128 140 130 109 114 119 109 110 20 342 5 331 86 210 244 332 341 309 253 221 214
341 333 336 332 323 316 306 289 275 282 271 231 236 256 258 226 240 282 342 206 155 131 123 124 125 116 100 122 47 67 56 59 20 354 341 30 265 205 337 336 347 350 231 216 213
342 336 336 335 331 318 313 293 269 236 261 258 253 252 240 224 239 254 335 200 153 144 129 139 161 97 109 94 23 10 208 226 317 41 318 31 276 238 337 341 349 351 282 211 205
341 335 333 334 329 325 319 310 261 235 250 261 230 247 225 209 247 254 274 165 158 145 116 154 85 71 41 85 216 211 220 239 248 339 358 246 264 292 317 339 349 355 328 199 196
340 333 331 331 327 323 322 316 288 253 222 220 177 215 169 243 253 230 281 161 141 134 134 27 74 222 229 147 95 115 134 244 264 78 311 238 277 283 287 334 10 18 48 167 183
338 333 331 329 322 321 320 272 276 210 275 234 233 236 231 253 199 229 43 166 145 167 102 25 222 140 116 105 113 107 143 256 273 57 231 347 294 275 254 123 17 16 58 131 167
336 332 329 327 316 310 338 306 287 267 191 321 210 221 219 247 199 200 104 139 99 134 161 170 155 149 115 124 137 171 192 218 227 328 43 322 305 232 202 174 95 52 61 138 165
336 332 328 325 315 314 297 303 291 294 64 279 248 221 247 170 61 39 94 145 52 179 136 149 126 159 136 198 134 253 123 113 50 40 258 10 269 265 222 216 120 54 70 114 162
338 330 327 319 305 301 293 280 313 71 7 231 87 159 27 146 127 30 45 105 151 147 116 234 158 164 181 218 187 188 85 91 96 87 41 6 99 265 8 238 197 131 72 92 161
336 330 327 318 300 298 273 211 113 45 260 85 108 290 94 47 65 134 140 97 105 106 51 86 69 59 119 68 60 143 87 57 60 98 22 228 151 273 193 204 152 157 100 77 144
334 328 332 327 306 295 220 157 36 134 337 352 343 28 356 334 18 38 54 26 167 100 222 84 169 79 113 99 36 85 72 327 343 7 224 171 49 248 214 97 159 155 120 86 136
334 324 324 334 317 244 158 55 193 234 224 359 302 301 253 15 289 355 55 286 227 81 100 166 299 165 0 154 182 179 150 163 219 225 273 115 231 249 149 101 117 130 121 103 120
330 313 313 340 332 166 153 76 215 198 179 328 268 310 305 43 237 10 205 184 201 184 170 150 257 118 57 109 87 183 201 127 101 53 20 226 285 269 138 133 134 137 132 108 109
329 293 292 336 329 161 80 225 180 23 17 350 238 120 258 275 329 4 205 249 181 131 141 180 344 359 105 96 41 150 145 74 8 272 258 272 283 245 221 204 178 165 147 131 119
325 264 314 338 248 143 159 226 15 30 29 9 328 313 276 337 330 283 335 15 6 47 75 129 106 263 100 196 183 71 321 36 118 156 213 279 252 212 230 201 187 173 164 151 134
308 15 327 342 43 37 111 125 34 23 26 44 86 46 19 1 307 299 342 13 3 109 38 4 149 232 228 297 166 124 193 153 146 253 226 244 267 360 263 207 171 174 173 167 162
320 320 5 5 109 29 241 80 70 43 40 28 45 40 28 40 0 25 16 306 34 48 171 210 332 349 326 1 27 221 212 132 117 107 202 175 263 54 87 174 189 192 186 182 171
342 29 43 63 58 101 35 1 72 36 62 54 51 82 34 26 353 291 339 359 318 177 157 160 170 184 240 219 135 200 204 200 166 169 242 231 273 230 223 220 220 211 203 189 182
49 81 79 7 28 69 71 345 29 13 17 32 52 61 105 24 329 269 23 337 253 209 111 123 228 225 258 271 213 222 217 192 203 236 247 274 264 279 239 217 214 209 201 192 170
71 91 89 65 30 62 12 6 66 336 25 352 92 327 257 206 224 269 32 241 246 26 71 31 279 62 284 255 255 274 252 227 236 251 265 272 280 307 297 254 185 192 190 188 182
61 68 79 8 30 67 333 20 333 313 65 71 48 302 263 208 288 277 269 255 276 21 357 284 260 347 280 69 326 302 246 231 206 218 188 253 291 341 295 203 166 170 179 180 178